Location: Fond Mahaut
(18.0707°N, 63.0465°W)
Time: 05:18:27
(UTC+00:00)

Okean 1 - Pass Details

Date: 08 December 2019
Orbit: 540 x 554 km, 82.5° (Epoch: 27 January)

Event Time Altitude Azimuth Distance (km) Brightness Sun altitude
Rises 21:58:52 0° 164° (SSE) 2,708 6.9 -5.7°
Reaches altitude 10° 22:01:14 10° 152° (SSE) 1,815 5.9 -6.2°
Maximum altitude 22:04:41 29° 92° (E) 1,022 4.2 -7.0°
Drops below altitude 10° 22:08:09 10° 31° (NNE) 1,811 5.5 -7.8°
Enters shadow 22:10:26 - 21° (NNE) 2,678 6.4 -8.3°
